Teterboro, NJ

7:21 AM EDT on June 21, 2018 (GMT -0400)
Teterboro

Weather History for KTEB - September, 2017

Change the Weather History Date:

Wednesday, September 13, 2017

  Actual Average Record
Temperature  
Mean Temperature 70 °F -  
Max Temperature 86 °F 77 °F 95 °F (2005)
Min Temperature 57 °F 58 °F 48 °F (1992)
Cooling Degree Days 6    
Growing Degree Days 20 (Base 50)    
Moisture  
Dew Point 62 °F    
Average Humidity 75    
Maximum Humidity 93    
Minimum Humidity 31    
Precipitation  
Precipitation 0.00 in - - ()
Sea Level Pressure  
Sea Level Pressure 29.88 in    
Wind  
Wind Speed 2 mph (SSW)    
Max Wind Speed 9 mph    
Max Gust Speed 16 mph    
Visibility 10 miles    
Events Fog , Rain    
Averages and records for this station are not official NWS values.
T = Trace of Precipitation, MM = Missing Value Source: NWS Daily Summary

Daily Weather History Graph

Daily Weather History Graph

Search for Another Location

Airport or City:

Astronomy

Sep. 13, 2017 Rise Set
Actual Time 6:35 AM EDT 7:08 PM EDT
Civil Twilight 6:07 AM EDT 7:35 PM EDT
Nautical Twilight 5:34 AM EDT 8:08 PM EDT
Astronomical Twilight 5:01 AM EDT 8:41 PM EDT
Moon No Moon Rise 2:23 PM EDT (9/13)
Length of Visible Light 13h 28m
Length of Day
12h 33m
Last Quarter, 46% of the Moon is Illuminated
Sep 13
Last Quarter
Sep 20
New
Sep 27
First Quarter
Oct 5
Full
Oct 12
Last Quarter

Hourly Weather History & Observations

Time (EDT) Temp. Heat Index Dew Point Humidity Pressure Visibility Wind Dir Wind Speed Gust Speed Precip Events Conditions
12:51 AM 63.0 °F - 57.9 °F 84% 29.91 in 10.0 mi Calm Calm - N/A   Clear
1:51 AM 61.0 °F - 57.0 °F 87% 29.91 in 10.0 mi Calm Calm - N/A   Clear
2:51 AM 60.1 °F - 57.0 °F 90% 29.91 in 10.0 mi Calm Calm - N/A Fog Shallow Fog
3:51 AM 61.0 °F - 57.0 °F 87% 29.90 in 10.0 mi Calm Calm - N/A Fog Shallow Fog
4:51 AM 57.9 °F - 55.0 °F 90% 29.90 in 10.0 mi Calm Calm - N/A Fog Shallow Fog
5:51 AM 57.0 °F - 55.0 °F 93% 29.91 in 10.0 mi Calm Calm - N/A Fog Shallow Fog
6:51 AM 62.1 °F - 57.9 °F 86% 29.93 in 10.0 mi Calm Calm - N/A Fog Shallow Fog
7:51 AM 63.0 °F - 57.9 °F 84% 29.93 in 10.0 mi Calm Calm - N/A   Clear
8:51 AM 66.0 °F - 57.9 °F 75% 29.92 in 10.0 mi Variable 4.6 mph - N/A   Clear
9:51 AM 73.0 °F - 59.0 °F 61% 29.91 in 10.0 mi Calm Calm - N/A   Clear
10:51 AM 77.0 °F - 57.0 °F 50% 29.91 in 10.0 mi Calm Calm - N/A   Clear
11:51 AM 81.0 °F - 48.0 °F 31% 29.89 in 10.0 mi SSW 5.8 mph - N/A   Clear
12:51 PM 84.0 °F 82.6 °F 54.0 °F 35% 29.88 in 10.0 mi SSW 8.1 mph - N/A   Mostly Cloudy
1:51 PM 84.9 °F 84.4 °F 59.0 °F 41% 29.86 in 10.0 mi Variable 6.9 mph - N/A   Scattered Clouds
2:51 PM 82.0 °F 83.1 °F 63.0 °F 52% 29.86 in 10.0 mi West 9.2 mph - N/A   Overcast
3:51 PM 77.0 °F - 66.0 °F 69% 29.85 in 10.0 mi Variable 6.9 mph - 0.00 in Rain Light Rain
4:51 PM 78.1 °F - 66.0 °F 66% 29.85 in 10.0 mi SSE 6.9 mph - 0.00 in   Overcast
5:07 PM 79.0 °F - 66.9 °F 66% 29.85 in 10.0 mi South 9.2 mph 16.1 mph 0.00 in Rain Light Rain
5:51 PM 75.0 °F - 66.9 °F 76% 29.86 in 10.0 mi Variable 3.5 mph - 0.00 in   Overcast
6:51 PM 73.9 °F - 68.0 °F 82% 29.86 in 10.0 mi Calm Calm - 0.00 in   Overcast
7:03 PM 73.9 °F - 68.0 °F 82% 29.85 in 10.0 mi SE 6.9 mph - N/A   Overcast
7:51 PM 73.0 °F - 68.0 °F 84% 29.86 in 10.0 mi SSE 6.9 mph - N/A   Overcast
7:58 PM 73.9 °F - 69.1 °F 85% 29.86 in 10.0 mi Variable 4.6 mph - N/A   Overcast
8:51 PM 72.0 °F - 69.1 °F 91% 29.87 in 10.0 mi SSW 3.5 mph - N/A   Overcast
9:51 PM 73.0 °F - 69.1 °F 87% 29.86 in 10.0 mi Calm Calm - N/A   Overcast
10:51 PM 73.0 °F - 70.0 °F 90% 29.87 in 10.0 mi SW 5.8 mph - 0.00 in   Overcast
11:51 PM 73.0 °F - 70.0 °F 90% 29.86 in 10.0 mi SSW 6.9 mph - 0.00 in   Overcast